Regional Weather Roundup
Issued by NWS

Home | Current Version | Previous Version | Graphics & Text | Print | Product List | Glossary On
Versions: 1 2 3 4 5 6 7 8 9 10 11 12 13 14 15 16 17 18 19 20 21 22 23 24 25 26 27 28 29 30 31 32 33 34 35 36 37 38 39 40 41 42 43 44 45 46 47 48 49
000
ASUS45 KBOU 260307
RWRCO

WEATHER ROUNDUP FOR COLORADO
NATIONAL WEATHER SERVICE DENVER/BOULDER CO
800 PM MST SUN JAN 25 2015

NOTE: "FAIR" INDICATES FEW OR NO CLOUDS BELOW 12000 FEET WITH NO
SIGNIFICANT WEATHER AND/OR OBSTRUCTIONS TO VISIBILITY.

COZ001>005-013-030-031-260400-
...NORTHWEST COLORADO...

CITY           SKY/WX    TMP DP  RH WIND       PRES   REMARKS
CRAIG          PTCLDY    23  19  85 CALM      30.40S
HAYDEN         PTCLDY    28  21  74 S5        30.39F WCI  23
MEEKER         PTCLDY    22  18  85 NE3       30.40R
MOUNT WERNER   NOT AVBL
STEAMBOAT SPGS PTCLDY    30  25  82 CALM      30.41F
WALDEN         PTCLDY    27  21  80 SE6       30.39R WCI  20
$$

COZ006>008-011-260400-
...WEST CENTRAL VALLEYS...

CITY           SKY/WX    TMP DP  RH WIND       PRES   REMARKS
GRAND JUNCTION CLEAR     36  23  59 E5        30.37R
MONTROSE       PTCLDY    30  18  60 SE8       30.40R WCI  22
EAGLE          CLEAR     34  27  75 CALM      30.43R
RIFLE          CLEAR     33  25  72 CALM      30.39R
DELTA          PTCLDY    33  21  61 CALM      30.39R
NUCLA          PTCLDY    39  23  52 NW8       30.37S
$$

COZ017>023-064>068-260400-
...SOUTHWEST COLORADO...

CITY           SKY/WX    TMP DP  RH WIND       PRES   REMARKS
DURANGO        MOCLDY    34  24  67 CALM      30.31R
CORTEZ         CLEAR     32  22  66 E5        30.28R WCI  27
PAGOSA SPRINGS MOCLDY    28  20  71 CALM      30.33S
TELLURIDE      PTCLDY    34  22  61 S3        30.40F
WOLF CREEK PAS NOT AVBL
$$

COZ009-010-012-014-032>034-037-058>063-260400-
...CENTRAL COLORADO...

CITY           SKY/WX    TMP DP  RH WIND       PRES   REMARKS
ASPEN          CLEAR     29  21  72 SW8       30.42R WCI  21
BUENA VISTA    CLEAR     41  22  47 NW22G33   30.33R
COPPER MTN     CLEAR     28  19  69 W12       30.50S WCI  18
BERTHOUD PASS  MOCLDY    18  12  79 NW31      30.44F WCI  -2
COTTONWOOD PAS CLEAR     37  18  44 NW7       30.39S
GUNNISON       PTCLDY    10   0  61 CALM      30.46R
KREMMLING      PTCLDY    28  23  80 CALM      30.43S
LEADVILLE      PTCLDY    26  19  74 N10       30.42R WCI  16
MONARCH PASS   CLEAR     27  16  63 MISG      30.56S
SALIDA         CLEAR     40  22  47 W8        30.40R
SUNLIGHT       CLEAR     32  23  69 N7        30.48R WCI  26
WILKERSON PASS PTCLDY    32  14  47 N9G23     30.42S WCI  24
$$

COZ069>075-260400-
...SAN LUIS VALLEY/SANGRE DE CRISTO MOUNTAINS...

CITY           SKY/WX    TMP DP  RH WIND       PRES   REMARKS
ALAMOSA        PTCLDY    21  13  71 W7        30.33R WCI  12
LA VETA PASS   NOT AVBL
SAGUACHE       CLEAR     36  25  64 N15G21    30.36R
$$

COZ035-036-038>040-260400-
...NORTHERN COLORADO FRONT RANGE...

CITY           SKY/WX    TMP DP  RH WIND       PRES   REMARKS
DENVER INTL AP CLEAR     45  24  43 SW6       30.18S
DMNS CITY PARK   N/A     48  22  36 W2        30.18S
AURORA         CLEAR     46  23  39 W8        30.20R
FRONT RANGE AP NOT AVBL
ERIE MUNI ARPT CLEAR     41  24  51 CALM      30.17S
BOULDER MUN AP CLEAR     50  23  34 CALM      30.17S
CENTENNIAL     PTCLDY    47  23  38 W7        30.20R
BROOMFIELD     PTCLDY    50  25  37 W12       30.19S
FORT COLLINS   CLEAR     43  28  56 CALM      30.19R
LONGMONT       CLEAR     37  24  60 CALM      30.19S
$$

COZ041-046-047-076>085-087-088-260400-
...PIKES PEAK/PALMER DIVIDE AND SOUTHERN FOOTHILLS...

CITY           SKY/WX    TMP DP  RH WIND       PRES   REMARKS
COLO. SPRINGS  CLEAR     34  25  69 N6        30.23S WCI  29
A. F. ACADEMY  CLEAR     31  24  75 N9        30.23S WCI  23
ELLICOTT       CLEAR    N/A N/A N/A CALM      30.22R
FALCON         CLEAR     34  24  66 W8        30.24F WCI  27
FORT CARSON    CLEAR     38  24  56 N3        30.20S
LIMON          CLEAR     27  23  85 N9        30.20S WCI  18
MONUMENT HILL  CLEAR     36  25  64 SW7       30.23S
TRINIDAD       CLEAR     41  26  55 W10       30.23R
$$

COZ042>045-048>051-090-091-260400-
...NORTHEAST COLORADO...

CITY           SKY/WX    TMP DP  RH WIND       PRES   REMARKS
GREELEY ARPT   CLEAR     30  21  69 N5        30.16R WCI  25
AKRON          CLEAR     45  30  55 NW12      30.15S
BURLINGTON     CLEAR     36  30  79 W10       30.14S
WRAY           MOCLDY    37  31  82 W10       30.11S
STERLING       CLEAR     41  34  75 NW13      30.13S
HOLYOKE        MOCLDY    37  32  81 W12       30.10S
FORT MORGAN    CLEAR     43  28  53 W3        30.17S
$$

COZ086-089-092>099-260400-
...SOUTHEAST COLORADO...

CITY           SKY/WX    TMP DP  RH WIND       PRES   REMARKS
PUEBLO         CLEAR     36  29  75 W6        30.19S
LA JUNTA       CLEAR     43  30  60 SW13      30.17R
LAMAR          CLEAR     35  30  82 S10       30.15R WCI  27
SPRINGFIELD      N/A     34  29  82 W9        30.18S WCI  27
$$



USA.gov is the U.S. government's official web portal to all federal, state and local government web resources and services.